Year,Month,Day,Hour,Minute,Value (Times are PST for insolation in W/m^2)
2017,05,24,00,00,0.00
2017,05,24,00,01,0.00
2017,05,24,00,02,0.00
2017,05,24,00,03,0.00
2017,05,24,00,04,0.00
2017,05,24,00,05,0.00
2017,05,24,00,06,0.00
2017,05,24,00,07,0.00
2017,05,24,00,08,0.00
2017,05,24,00,09,0.00
2017,05,24,00,10,0.00
2017,05,24,00,11,0.00
2017,05,24,00,12,0.00
2017,05,24,00,13,0.00
2017,05,24,00,14,0.00
2017,05,24,00,15,0.00
2017,05,24,00,16,0.00
2017,05,24,00,17,0.00
2017,05,24,00,18,0.00
2017,05,24,00,19,0.00
2017,05,24,00,20,0.00
2017,05,24,00,21,0.00
2017,05,24,00,22,0.00
2017,05,24,00,23,0.00
2017,05,24,00,24,0.00
2017,05,24,00,25,0.00
2017,05,24,00,26,0.00
2017,05,24,00,27,0.00
2017,05,24,00,28,0.00
2017,05,24,00,29,0.00
2017,05,24,00,30,0.00
2017,05,24,00,31,0.00
2017,05,24,00,32,0.00
2017,05,24,00,33,0.00
2017,05,24,00,34,0.00
2017,05,24,00,35,0.00
2017,05,24,00,36,0.00
2017,05,24,00,37,0.00
2017,05,24,00,38,0.00
2017,05,24,00,39,0.00
2017,05,24,00,40,0.00
2017,05,24,00,41,0.00
2017,05,24,00,42,0.00
2017,05,24,00,43,0.00
2017,05,24,00,44,0.00
2017,05,24,00,45,0.00
2017,05,24,00,46,0.00
2017,05,24,00,47,0.00
2017,05,24,00,48,0.00
2017,05,24,00,49,0.00
2017,05,24,00,50,0.00
2017,05,24,00,51,0.00
2017,05,24,00,52,0.00
2017,05,24,00,53,0.00
2017,05,24,00,54,0.00
2017,05,24,00,55,0.00
2017,05,24,00,56,0.00
2017,05,24,00,57,0.00
2017,05,24,00,58,0.00
2017,05,24,00,59,0.00
2017,05,24,01,00,0.00
2017,05,24,01,01,0.00
2017,05,24,01,02,0.00
2017,05,24,01,03,0.00
2017,05,24,01,04,0.00
2017,05,24,01,05,0.00
2017,05,24,01,06,0.00
2017,05,24,01,07,0.00
2017,05,24,01,08,0.00
2017,05,24,01,09,0.00
2017,05,24,01,10,0.00
2017,05,24,01,11,0.00
2017,05,24,01,12,0.00
2017,05,24,01,13,0.00
2017,05,24,01,14,0.00
2017,05,24,01,15,0.00
2017,05,24,01,16,0.00
2017,05,24,01,17,0.00
2017,05,24,01,18,0.00
2017,05,24,01,19,0.00
2017,05,24,01,20,0.00
2017,05,24,01,21,0.00
2017,05,24,01,22,0.00
2017,05,24,01,23,0.00
2017,05,24,01,24,0.00
2017,05,24,01,25,0.00
2017,05,24,01,26,0.00
2017,05,24,01,27,0.00
2017,05,24,01,28,0.00
2017,05,24,01,29,0.00
2017,05,24,01,30,0.00
2017,05,24,01,31,0.00
2017,05,24,01,32,0.00
2017,05,24,01,33,0.00
2017,05,24,01,34,0.00
2017,05,24,01,35,0.00
2017,05,24,01,36,0.00
2017,05,24,01,37,0.00
2017,05,24,01,38,0.00
2017,05,24,01,39,0.00
2017,05,24,01,40,0.00
2017,05,24,01,41,0.00
2017,05,24,01,42,0.00
2017,05,24,01,43,0.00
2017,05,24,01,44,0.00
2017,05,24,01,45,0.00
2017,05,24,01,46,0.00
2017,05,24,01,47,0.00
2017,05,24,01,48,0.00
2017,05,24,01,49,0.00
2017,05,24,01,50,0.00
2017,05,24,01,51,0.00
2017,05,24,01,52,0.00
2017,05,24,01,53,0.00
2017,05,24,01,54,0.00
2017,05,24,01,55,0.00
2017,05,24,01,56,0.00
2017,05,24,01,57,0.00
2017,05,24,01,58,0.00
2017,05,24,01,59,0.00
2017,05,24,02,00,0.00
2017,05,24,02,01,0.00
2017,05,24,02,02,0.00
2017,05,24,02,03,0.00
2017,05,24,02,04,0.00
2017,05,24,02,05,0.00
2017,05,24,02,06,0.00
2017,05,24,02,07,0.00
2017,05,24,02,08,0.00
2017,05,24,02,09,0.00
2017,05,24,02,10,0.00
2017,05,24,02,11,0.00
2017,05,24,02,12,0.00
2017,05,24,02,13,0.00
2017,05,24,02,14,0.00
2017,05,24,02,15,0.00
2017,05,24,02,16,0.00
2017,05,24,02,17,0.00
2017,05,24,02,18,0.00
2017,05,24,02,19,0.00
2017,05,24,02,20,0.00
2017,05,24,02,21,0.00
2017,05,24,02,22,0.00
2017,05,24,02,23,0.00
2017,05,24,02,24,0.00
2017,05,24,02,25,0.00
2017,05,24,02,26,0.00
2017,05,24,02,27,0.00
2017,05,24,02,28,0.00
2017,05,24,02,29,0.00
2017,05,24,02,30,0.00
2017,05,24,02,31,0.00
2017,05,24,02,32,0.00
2017,05,24,02,33,0.00
2017,05,24,02,34,0.00
2017,05,24,02,35,0.00
2017,05,24,02,36,0.00
2017,05,24,02,37,0.00
2017,05,24,02,38,0.00
2017,05,24,02,39,0.00
2017,05,24,02,40,0.00
2017,05,24,02,41,0.00
2017,05,24,02,42,0.00
2017,05,24,02,43,0.00
2017,05,24,02,44,0.00
2017,05,24,02,45,0.00
2017,05,24,02,46,0.00
2017,05,24,02,47,0.00
2017,05,24,02,48,0.00
2017,05,24,02,49,0.00
2017,05,24,02,50,0.00
2017,05,24,02,51,0.00
2017,05,24,02,52,0.00
2017,05,24,02,53,0.00
2017,05,24,02,54,0.00
2017,05,24,02,55,0.00
2017,05,24,02,56,0.00
2017,05,24,02,57,0.00
2017,05,24,02,58,0.00
2017,05,24,02,59,0.00
2017,05,24,03,00,0.00
2017,05,24,03,01,0.00
2017,05,24,03,02,0.00
2017,05,24,03,03,0.00
2017,05,24,03,04,0.00
2017,05,24,03,05,0.00
2017,05,24,03,06,0.00
2017,05,24,03,07,0.00
2017,05,24,03,08,0.00
2017,05,24,03,09,0.00
2017,05,24,03,10,0.00
2017,05,24,03,11,0.00
2017,05,24,03,12,0.00
2017,05,24,03,13,0.00
2017,05,24,03,14,0.00
2017,05,24,03,15,0.00
2017,05,24,03,16,0.00
2017,05,24,03,17,0.00
2017,05,24,03,18,0.00
2017,05,24,03,19,0.00
2017,05,24,03,20,0.00
2017,05,24,03,21,0.00
2017,05,24,03,22,0.00
2017,05,24,03,23,0.00
2017,05,24,03,24,0.00
2017,05,24,03,25,0.00
2017,05,24,03,26,0.00
2017,05,24,03,27,0.00
2017,05,24,03,28,0.00
2017,05,24,03,29,0.00
2017,05,24,03,30,0.00
2017,05,24,03,31,0.00
2017,05,24,03,32,0.00
2017,05,24,03,33,0.00
2017,05,24,03,34,0.00
2017,05,24,03,35,0.00
2017,05,24,03,36,0.00
2017,05,24,03,37,0.00
2017,05,24,03,38,0.00
2017,05,24,03,39,0.00
2017,05,24,03,40,0.00
2017,05,24,03,41,0.00
2017,05,24,03,42,0.00
2017,05,24,03,43,0.00
2017,05,24,03,44,0.00
2017,05,24,03,45,0.00
2017,05,24,03,46,0.00
2017,05,24,03,47,0.00
2017,05,24,03,48,0.00
2017,05,24,03,49,0.00
2017,05,24,03,50,0.00
2017,05,24,03,51,0.00
2017,05,24,03,52,0.00
2017,05,24,03,53,0.00
2017,05,24,03,54,0.00
2017,05,24,03,55,0.00
2017,05,24,03,56,0.00
2017,05,24,03,57,0.00
2017,05,24,03,58,0.00
2017,05,24,03,59,0.00
2017,05,24,04,00,0.00
2017,05,24,04,01,0.00
2017,05,24,04,02,0.00
2017,05,24,04,03,0.00
2017,05,24,04,04,0.00
2017,05,24,04,05,0.00
2017,05,24,04,06,0.00
2017,05,24,04,07,0.00
2017,05,24,04,08,0.00
2017,05,24,04,09,0.00
2017,05,24,04,10,0.00
2017,05,24,04,11,0.00
2017,05,24,04,12,0.00
2017,05,24,04,13,0.00
2017,05,24,04,14,0.00
2017,05,24,04,15,0.00
2017,05,24,04,16,0.00
2017,05,24,04,17,0.00
2017,05,24,04,18,0.00
2017,05,24,04,19,0.00
2017,05,24,04,20,0.00
2017,05,24,04,21,0.00
2017,05,24,04,22,0.00
2017,05,24,04,23,0.00
2017,05,24,04,24,0.00
2017,05,24,04,25,0.00
2017,05,24,04,26,0.00
2017,05,24,04,27,0.00
2017,05,24,04,28,0.00
2017,05,24,04,29,0.00
2017,05,24,04,30,0.00
2017,05,24,04,31,0.00
2017,05,24,04,32,0.00
2017,05,24,04,33,0.00
2017,05,24,04,34,0.00
2017,05,24,04,35,0.00
2017,05,24,04,36,0.00
2017,05,24,04,37,0.00
2017,05,24,04,38,0.00
2017,05,24,04,39,0.00
2017,05,24,04,40,0.00
2017,05,24,04,41,0.00
2017,05,24,04,42,0.00
2017,05,24,04,43,0.00
2017,05,24,04,44,0.00
2017,05,24,04,45,0.00
2017,05,24,04,46,0.00
2017,05,24,04,47,0.00
2017,05,24,04,48,0.00
2017,05,24,04,49,0.00
2017,05,24,04,50,0.00
2017,05,24,04,51,0.00
2017,05,24,04,52,0.00
2017,05,24,04,53,0.00
2017,05,24,04,54,0.00
2017,05,24,04,55,0.00
2017,05,24,04,56,0.00
2017,05,24,04,57,0.00
2017,05,24,04,58,0.00
2017,05,24,04,59,0.00
2017,05,24,05,00,0.00
2017,05,24,05,01,0.00
2017,05,24,05,02,0.00
2017,05,24,05,03,0.00
2017,05,24,05,04,0.00
2017,05,24,05,05,0.00
2017,05,24,05,06,0.00
2017,05,24,05,07,0.00
2017,05,24,05,08,0.00
2017,05,24,05,09,0.00
2017,05,24,05,10,0.00
2017,05,24,05,11,0.00
2017,05,24,05,12,0.00
2017,05,24,05,13,0.00
2017,05,24,05,14,0.00
2017,05,24,05,15,0.00
2017,05,24,05,16,0.00
2017,05,24,05,17,0.00
2017,05,24,05,18,0.00
2017,05,24,05,19,0.00
2017,05,24,05,20,0.00
2017,05,24,05,21,0.00
2017,05,24,05,22,0.00
2017,05,24,05,23,0.00
2017,05,24,05,24,0.00
2017,05,24,05,25,0.00
2017,05,24,05,26,0.00
2017,05,24,05,27,2.80
2017,05,24,05,28,5.00
2017,05,24,05,29,5.00
2017,05,24,05,30,5.00
2017,05,24,05,31,5.00
2017,05,24,05,32,5.00
2017,05,24,05,33,6.20
2017,05,24,05,34,7.00
2017,05,24,05,35,7.00
2017,05,24,05,36,7.00
2017,05,24,05,37,7.00
2017,05,24,05,38,7.00
2017,05,24,05,39,8.20
2017,05,24,05,40,9.00
2017,05,24,05,41,9.10
2017,05,24,05,42,11.00
2017,05,24,05,43,11.00
2017,05,24,05,44,11.50
2017,05,24,05,45,12.00
2017,05,24,05,46,12.00
2017,05,24,05,47,13.80
2017,05,24,05,48,14.40
2017,05,24,05,49,16.00
2017,05,24,05,50,16.00
2017,05,24,05,51,17.30
2017,05,24,05,52,18.80
2017,05,24,05,53,23.10
2017,05,24,05,54,26.40
2017,05,24,05,55,28.80
2017,05,24,05,56,30.00
2017,05,24,05,57,31.40
2017,05,24,05,58,32.80
2017,05,24,05,59,33.20
2017,05,24,06,00,35.50
2017,05,24,06,01,37.80
2017,05,24,06,02,39.50
2017,05,24,06,03,41.30
2017,05,24,06,04,43.70
2017,05,24,06,05,44.20
2017,05,24,06,06,46.20
2017,05,24,06,07,47.90
2017,05,24,06,08,50.20
2017,05,24,06,09,52.40
2017,05,24,06,10,53.80
2017,05,24,06,11,58.30
2017,05,24,06,12,60.60
2017,05,24,06,13,62.50
2017,05,24,06,14,64.20
2017,05,24,06,15,66.50
2017,05,24,06,16,68.80
2017,05,24,06,17,70.40
2017,05,24,06,18,72.60
2017,05,24,06,19,74.90
2017,05,24,06,20,77.90
2017,05,24,06,21,69.00
2017,05,24,06,22,55.00
2017,05,24,06,23,53.20
2017,05,24,06,24,66.40
2017,05,24,06,25,76.50
2017,05,24,06,26,86.60
2017,05,24,06,27,90.20
2017,05,24,06,28,92.80
2017,05,24,06,29,93.60
2017,05,24,06,30,88.00
2017,05,24,06,31,93.00
2017,05,24,06,32,100.60
2017,05,24,06,33,104.40
2017,05,24,06,34,105.20
2017,05,24,06,35,108.00
2017,05,24,06,36,111.70
2017,05,24,06,37,113.60
2017,05,24,06,38,115.30
2017,05,24,06,39,117.60
2017,05,24,06,40,120.10
2017,05,24,06,41,121.50
2017,05,24,06,42,124.70
2017,05,24,06,43,127.60
2017,05,24,06,44,130.80
2017,05,24,06,45,133.60
2017,05,24,06,46,135.30
2017,05,24,06,47,137.50
2017,05,24,06,48,140.30
2017,05,24,06,49,143.10
2017,05,24,06,50,145.40
2017,05,24,06,51,147.70
2017,05,24,06,52,151.30
2017,05,24,06,53,153.60
2017,05,24,06,54,155.40
2017,05,24,06,55,158.40
2017,05,24,06,56,162.20
2017,05,24,06,57,166.40
2017,05,24,06,58,173.40
2017,05,24,06,59,183.70
2017,05,24,07,00,181.90
2017,05,24,07,01,189.70
2017,05,24,07,02,199.20
2017,05,24,07,03,189.10
2017,05,24,07,04,167.20
2017,05,24,07,05,80.80
2017,05,24,07,06,83.60
2017,05,24,07,07,83.00
2017,05,24,07,08,83.80
2017,05,24,07,09,81.10
2017,05,24,07,10,79.40
2017,05,24,07,11,83.40
2017,05,24,07,12,94.00
2017,05,24,07,13,105.80
2017,05,24,07,14,117.70
2017,05,24,07,15,133.20
2017,05,24,07,16,115.50
2017,05,24,07,17,114.00
2017,05,24,07,18,114.00
2017,05,24,07,19,114.00
2017,05,24,07,20,114.00
2017,05,24,07,21,120.70
2017,05,24,07,22,132.20
2017,05,24,07,23,141.90
2017,05,24,07,24,148.80
2017,05,24,07,25,155.90
2017,05,24,07,26,180.90
2017,05,24,07,27,210.50
2017,05,24,07,28,331.80
2017,05,24,07,29,252.60
2017,05,24,07,30,241.00
2017,05,24,07,31,329.20
2017,05,24,07,32,325.40
2017,05,24,07,33,318.00
2017,05,24,07,34,265.20
2017,05,24,07,35,138.50
2017,05,24,07,36,132.10
2017,05,24,07,37,130.00
2017,05,24,07,38,146.10
2017,05,24,07,39,149.00
2017,05,24,07,40,145.40
2017,05,24,07,41,138.80
2017,05,24,07,42,144.00
2017,05,24,07,43,156.50
2017,05,24,07,44,161.40
2017,05,24,07,45,153.20
2017,05,24,07,46,144.20
2017,05,24,07,47,137.30
2017,05,24,07,48,131.50
2017,05,24,07,49,131.50
2017,05,24,07,50,134.70
2017,05,24,07,51,135.40
2017,05,24,07,52,138.80
2017,05,24,07,53,142.00
2017,05,24,07,54,142.00
2017,05,24,07,55,356.40
2017,05,24,07,56,392.50
2017,05,24,07,57,233.60
2017,05,24,07,58,221.20
2017,05,24,07,59,220.80
2017,05,24,08,00,181.00
2017,05,24,08,01,181.00
2017,05,24,08,02,217.40
2017,05,24,08,03,427.70
2017,05,24,08,04,444.40
2017,05,24,08,05,454.00
2017,05,24,08,06,259.40
2017,05,24,08,07,153.10
2017,05,24,08,08,153.10
2017,05,24,08,09,185.10
2017,05,24,08,10,218.00
2017,05,24,08,11,218.00
2017,05,24,08,12,204.00
2017,05,24,08,13,193.90
2017,05,24,08,14,189.70
2017,05,24,08,15,189.30
2017,05,24,08,16,192.40
2017,05,24,08,17,192.40
2017,05,24,08,18,190.50
2017,05,24,08,19,186.60
2017,05,24,08,20,183.40
2017,05,24,08,21,189.70
2017,05,24,08,22,200.30
2017,05,24,08,23,201.60
2017,05,24,08,24,187.20
2017,05,24,08,25,157.40
2017,05,24,08,26,126.40
2017,05,24,08,27,103.50
2017,05,24,08,28,98.40
2017,05,24,08,29,105.40
2017,05,24,08,30,114.60
2017,05,24,08,31,116.00
2017,05,24,08,32,116.00
2017,05,24,08,33,263.70
2017,05,24,08,34,517.00
2017,05,24,08,35,491.60
2017,05,24,08,36,474.00
2017,05,24,08,37,471.50
2017,05,24,08,38,475.80
2017,05,24,08,39,480.60
2017,05,24,08,40,487.10
2017,05,24,08,41,493.50
2017,05,24,08,42,430.30
2017,05,24,08,43,395.00
2017,05,24,08,44,178.00
2017,05,24,08,45,160.00
2017,05,24,08,46,211.60
2017,05,24,08,47,239.00
2017,05,24,08,48,427.70
2017,05,24,08,49,429.80
2017,05,24,08,50,256.70
2017,05,24,08,51,284.60
2017,05,24,08,52,322.00
2017,05,24,08,53,389.30
2017,05,24,08,54,411.30
2017,05,24,08,55,433.60
2017,05,24,08,56,554.00
2017,05,24,08,57,506.00
2017,05,24,08,58,384.00
2017,05,24,08,59,330.40
2017,05,24,09,00,307.20
2017,05,24,09,01,307.20
2017,05,24,09,02,297.40
2017,05,24,09,03,271.30
2017,05,24,09,04,246.20
2017,05,24,09,05,227.00
2017,05,24,09,06,211.90
2017,05,24,09,07,206.00
2017,05,24,09,08,206.40
2017,05,24,09,09,209.00
2017,05,24,09,10,217.30
2017,05,24,09,11,238.40
2017,05,24,09,12,261.00
2017,05,24,09,13,288.30
2017,05,24,09,14,301.20
2017,05,24,09,15,263.90
2017,05,24,09,16,231.60
2017,05,24,09,17,208.90
2017,05,24,09,18,208.30
2017,05,24,09,19,225.20
2017,05,24,09,20,250.10
2017,05,24,09,21,283.50
2017,05,24,09,22,337.30
2017,05,24,09,23,370.80
2017,05,24,09,24,350.00
2017,05,24,09,25,358.50
2017,05,24,09,26,362.60
2017,05,24,09,27,360.70
2017,05,24,09,28,379.30
2017,05,24,09,29,389.20
2017,05,24,09,30,329.00
2017,05,24,09,31,299.80
2017,05,24,09,32,215.00
2017,05,24,09,33,216.80
2017,05,24,09,34,225.20
2017,05,24,09,35,247.20
2017,05,24,09,36,298.00
2017,05,24,09,37,303.10
2017,05,24,09,38,329.00
2017,05,24,09,39,381.70
2017,05,24,09,40,425.00
2017,05,24,09,41,403.70
2017,05,24,09,42,391.60
2017,05,24,09,43,412.90
2017,05,24,09,44,400.00
2017,05,24,09,45,383.90
2017,05,24,09,46,378.20
2017,05,24,09,47,344.30
2017,05,24,09,48,324.00
2017,05,24,09,49,315.80
2017,05,24,09,50,303.70
2017,05,24,09,51,292.40
2017,05,24,09,52,285.60
2017,05,24,09,53,288.20
2017,05,24,09,54,296.40
2017,05,24,09,55,304.20
2017,05,24,09,56,314.00
2017,05,24,09,57,334.50
2017,05,24,09,58,320.60
2017,05,24,09,59,320.50
2017,05,24,10,00,333.80
2017,05,24,10,01,349.80
2017,05,24,10,02,366.40
2017,05,24,10,03,417.40
2017,05,24,10,04,422.50
2017,05,24,10,05,456.40
2017,05,24,10,06,411.20
2017,05,24,10,07,401.00
2017,05,24,10,08,377.80
2017,05,24,10,09,379.40
2017,05,24,10,10,391.40
2017,05,24,10,11,420.10
2017,05,24,10,12,477.90
2017,05,24,10,13,452.00
2017,05,24,10,14,464.20
2017,05,24,10,15,432.40
2017,05,24,10,16,395.30
2017,05,24,10,17,393.30
2017,05,24,10,18,403.60
2017,05,24,10,19,414.10
2017,05,24,10,20,422.30
2017,05,24,10,21,430.20
2017,05,24,10,22,427.50
2017,05,24,10,23,480.70
2017,05,24,10,24,443.60
2017,05,24,10,25,445.00
2017,05,24,10,26,445.00
2017,05,24,10,27,445.00
2017,05,24,10,28,445.00
2017,05,24,10,29,445.00
2017,05,24,10,30,436.00
2017,05,24,10,31,437.50
2017,05,24,10,32,498.80
2017,05,24,10,33,525.00
2017,05,24,10,34,616.90
2017,05,24,10,35,622.00
2017,05,24,10,36,622.00
2017,05,24,10,37,552.50
2017,05,24,10,38,483.00
2017,05,24,10,39,483.00
2017,05,24,10,40,441.40
2017,05,24,10,41,364.00
2017,05,24,10,42,384.40
2017,05,24,10,43,415.00
2017,05,24,10,44,415.00
2017,05,24,10,45,471.40
2017,05,24,10,46,482.00
2017,05,24,10,47,482.00
2017,05,24,10,48,482.00
2017,05,24,10,49,482.00
2017,05,24,10,50,565.30
2017,05,24,10,51,601.00
2017,05,24,10,52,649.00
2017,05,24,10,53,1088.80
2017,05,24,10,54,1107.00
2017,05,24,10,55,764.90
2017,05,24,10,56,467.20
2017,05,24,10,57,448.50
2017,05,24,10,58,458.70
2017,05,24,10,59,459.90
2017,05,24,11,00,463.60
2017,05,24,11,01,472.60
2017,05,24,11,02,488.20
2017,05,24,11,03,501.00
2017,05,24,11,04,461.00
2017,05,24,11,05,456.40
2017,05,24,11,06,427.00
2017,05,24,11,07,432.70
2017,05,24,11,08,451.80
2017,05,24,11,09,472.20
2017,05,24,11,10,515.20
2017,05,24,11,11,476.70
2017,05,24,11,12,480.00
2017,05,24,11,13,489.00
2017,05,24,11,14,489.00
2017,05,24,11,15,483.50
2017,05,24,11,16,476.80
2017,05,24,11,17,461.50
2017,05,24,11,18,448.00
2017,05,24,11,19,420.80
2017,05,24,11,20,404.70
2017,05,24,11,21,396.90
2017,05,24,11,22,387.50
2017,05,24,11,23,374.80
2017,05,24,11,24,360.70
2017,05,24,11,25,348.50
2017,05,24,11,26,337.40
2017,05,24,11,27,330.20
2017,05,24,11,28,329.20
2017,05,24,11,29,332.30
2017,05,24,11,30,337.00
2017,05,24,11,31,338.00
2017,05,24,11,32,336.30
2017,05,24,11,33,338.30
2017,05,24,11,34,348.50
2017,05,24,11,35,389.20
2017,05,24,11,36,451.00
2017,05,24,11,37,425.10
2017,05,24,11,38,408.00
2017,05,24,11,39,408.00
2017,05,24,11,40,408.00
2017,05,24,11,41,755.80
2017,05,24,11,42,1187.60
2017,05,24,11,43,1192.00
2017,05,24,11,44,1192.20
2017,05,24,11,45,1195.00
2017,05,24,11,46,1006.50
2017,05,24,11,47,598.00
2017,05,24,11,48,676.60
2017,05,24,11,49,762.00
2017,05,24,11,50,773.00
2017,05,24,11,51,446.00
2017,05,24,11,52,446.00
2017,05,24,11,53,411.20
2017,05,24,11,54,363.90
2017,05,24,11,55,350.20
2017,05,24,11,56,338.10
2017,05,24,11,57,328.40
2017,05,24,11,58,319.50
2017,05,24,11,59,312.00
2017,05,24,12,00,304.50
2017,05,24,12,01,296.40
2017,05,24,12,02,288.00
2017,05,24,12,03,280.40
2017,05,24,12,04,278.00
2017,05,24,12,05,279.60
2017,05,24,12,06,285.50
2017,05,24,12,07,295.30
2017,05,24,12,08,306.50
2017,05,24,12,09,318.20
2017,05,24,12,10,327.00
2017,05,24,12,11,331.10
2017,05,24,12,12,332.00
2017,05,24,12,13,332.00
2017,05,24,12,14,330.00
2017,05,24,12,15,332.40
2017,05,24,12,16,339.00
2017,05,24,12,17,339.00
2017,05,24,12,18,339.00
2017,05,24,12,19,469.50
2017,05,24,12,20,577.50
2017,05,24,12,21,1037.20
2017,05,24,12,22,996.20
2017,05,24,12,23,979.40
2017,05,24,12,24,976.00
2017,05,24,12,25,976.70
2017,05,24,12,26,973.20
2017,05,24,12,27,968.40
2017,05,24,12,28,969.40
2017,05,24,12,29,975.00
2017,05,24,12,30,981.40
2017,05,24,12,31,976.20
2017,05,24,12,32,963.30
2017,05,24,12,33,953.10
2017,05,24,12,34,956.50
2017,05,24,12,35,978.40
2017,05,24,12,36,1014.20
2017,05,24,12,37,1065.80
2017,05,24,12,38,1123.00
2017,05,24,12,39,1123.00
2017,05,24,12,40,1123.00
2017,05,24,12,41,1123.00
2017,05,24,12,42,697.40
2017,05,24,12,43,578.30
2017,05,24,12,44,458.80
2017,05,24,12,45,435.30
2017,05,24,12,46,420.90
2017,05,24,12,47,413.70
2017,05,24,12,48,400.90
2017,05,24,12,49,386.70
2017,05,24,12,50,376.70
2017,05,24,12,51,370.20
2017,05,24,12,52,361.30
2017,05,24,12,53,353.50
2017,05,24,12,54,346.10
2017,05,24,12,55,337.10
2017,05,24,12,56,328.80
2017,05,24,12,57,323.80
2017,05,24,12,58,322.00
2017,05,24,12,59,324.10
2017,05,24,13,00,329.20
2017,05,24,13,01,339.10
2017,05,24,13,02,347.30
2017,05,24,13,03,357.70
2017,05,24,13,04,372.40
2017,05,24,13,05,408.00
2017,05,24,13,06,412.60
2017,05,24,13,07,424.00
2017,05,24,13,08,396.40
2017,05,24,13,09,396.50
2017,05,24,13,10,394.80
2017,05,24,13,11,391.00
2017,05,24,13,12,381.80
2017,05,24,13,13,378.00
2017,05,24,13,14,376.20
2017,05,24,13,15,368.50
2017,05,24,13,16,359.50
2017,05,24,13,17,353.00
2017,05,24,13,18,350.20
2017,05,24,13,19,359.00
2017,05,24,13,20,397.70
2017,05,24,13,21,425.00
2017,05,24,13,22,425.00
2017,05,24,13,23,425.00
2017,05,24,13,24,501.50
2017,05,24,13,25,1193.40
2017,05,24,13,26,1212.70
2017,05,24,13,27,1217.60
2017,05,24,13,28,1242.80
2017,05,24,13,29,1282.70
2017,05,24,13,30,1314.50
2017,05,24,13,31,1359.00
2017,05,24,13,32,1404.00
2017,05,24,13,33,1035.10
2017,05,24,13,34,706.50
2017,05,24,13,35,708.00
2017,05,24,13,36,490.30
2017,05,24,13,37,467.40
2017,05,24,13,38,439.70
2017,05,24,13,39,428.80
2017,05,24,13,40,428.50
2017,05,24,13,41,425.60
2017,05,24,13,42,423.10
2017,05,24,13,43,409.40
2017,05,24,13,44,397.90
2017,05,24,13,45,391.60
2017,05,24,13,46,390.00
2017,05,24,13,47,395.10
2017,05,24,13,48,400.20
2017,05,24,13,49,394.00
2017,05,24,13,50,381.10
2017,05,24,13,51,369.80
2017,05,24,13,52,364.80
2017,05,24,13,53,364.00
2017,05,24,13,54,367.40
2017,05,24,13,55,369.70
2017,05,24,13,56,375.50
2017,05,24,13,57,387.60
2017,05,24,13,58,395.80
2017,05,24,13,59,401.10
2017,05,24,14,00,420.80
2017,05,24,14,01,459.00
2017,05,24,14,02,459.00
2017,05,24,14,03,409.10
2017,05,24,14,04,385.60
2017,05,24,14,05,422.70
2017,05,24,14,06,399.80
2017,05,24,14,07,384.40
2017,05,24,14,08,377.00
2017,05,24,14,09,371.90
2017,05,24,14,10,371.00
2017,05,24,14,11,374.50
2017,05,24,14,12,382.80
2017,05,24,14,13,390.40
2017,05,24,14,14,396.80
2017,05,24,14,15,402.50
2017,05,24,14,16,407.40
2017,05,24,14,17,405.50
2017,05,24,14,18,398.80
2017,05,24,14,19,387.20
2017,05,24,14,20,375.00
2017,05,24,14,21,366.10
2017,05,24,14,22,358.00
2017,05,24,14,23,353.00
2017,05,24,14,24,354.80
2017,05,24,14,25,362.20
2017,05,24,14,26,374.80
2017,05,24,14,27,392.00
2017,05,24,14,28,408.30
2017,05,24,14,29,405.70
2017,05,24,14,30,421.90
2017,05,24,14,31,432.10
2017,05,24,14,32,437.60
2017,05,24,14,33,434.50
2017,05,24,14,34,427.20
2017,05,24,14,35,451.10
2017,05,24,14,36,440.90
2017,05,24,14,37,449.50
2017,05,24,14,38,465.40
2017,05,24,14,39,479.80
2017,05,24,14,40,451.10
2017,05,24,14,41,436.60
2017,05,24,14,42,423.50
2017,05,24,14,43,427.50
2017,05,24,14,44,457.50
2017,05,24,14,45,422.20
2017,05,24,14,46,381.10
2017,05,24,14,47,376.50
2017,05,24,14,48,379.10
2017,05,24,14,49,377.00
2017,05,24,14,50,363.20
2017,05,24,14,51,345.40
2017,05,24,14,52,326.70
2017,05,24,14,53,313.40
2017,05,24,14,54,301.60
2017,05,24,14,55,289.50
2017,05,24,14,56,280.20
2017,05,24,14,57,272.90
2017,05,24,14,58,268.70
2017,05,24,14,59,266.50
2017,05,24,15,00,265.00
2017,05,24,15,01,265.00
2017,05,24,15,02,265.00
2017,05,24,15,03,265.00
2017,05,24,15,04,272.50
2017,05,24,15,05,284.90
2017,05,24,15,06,299.10
2017,05,24,15,07,311.00
2017,05,24,15,08,315.80
2017,05,24,15,09,313.00
2017,05,24,15,10,308.00
2017,05,24,15,11,309.50
2017,05,24,15,12,317.00
2017,05,24,15,13,329.60
2017,05,24,15,14,342.20
2017,05,24,15,15,368.50
2017,05,24,15,16,461.10
2017,05,24,15,17,455.40
2017,05,24,15,18,413.50
2017,05,24,15,19,424.00
2017,05,24,15,20,424.00
2017,05,24,15,21,542.50
2017,05,24,15,22,448.60
2017,05,24,15,23,378.20
2017,05,24,15,24,366.50
2017,05,24,15,25,408.90
2017,05,24,15,26,453.90
2017,05,24,15,27,468.30
2017,05,24,15,28,591.80
2017,05,24,15,29,570.00
2017,05,24,15,30,500.10
2017,05,24,15,31,443.00
2017,05,24,15,32,434.20
2017,05,24,15,33,465.40
2017,05,24,15,34,411.50
2017,05,24,15,35,396.40
2017,05,24,15,36,400.30
2017,05,24,15,37,396.80
2017,05,24,15,38,379.40
2017,05,24,15,39,373.80
2017,05,24,15,40,373.80
2017,05,24,15,41,359.40
2017,05,24,15,42,351.40
2017,05,24,15,43,358.80
2017,05,24,15,44,381.50
2017,05,24,15,45,405.10
2017,05,24,15,46,411.00
2017,05,24,15,47,412.70
2017,05,24,15,48,416.80
2017,05,24,15,49,423.20
2017,05,24,15,50,436.60
2017,05,24,15,51,480.00
2017,05,24,15,52,480.00
2017,05,24,15,53,685.60
2017,05,24,15,54,909.80
2017,05,24,15,55,907.00
2017,05,24,15,56,880.70
2017,05,24,15,57,372.80
2017,05,24,15,58,332.00
2017,05,24,15,59,327.00
2017,05,24,16,00,332.70
2017,05,24,16,01,351.00
2017,05,24,16,02,371.00
2017,05,24,16,03,417.60
2017,05,24,16,04,495.20
2017,05,24,16,05,531.00
2017,05,24,16,06,491.30
2017,05,24,16,07,537.80
2017,05,24,16,08,547.70
2017,05,24,16,09,413.00
2017,05,24,16,10,371.00
2017,05,24,16,11,371.00
2017,05,24,16,12,371.00
2017,05,24,16,13,371.00
2017,05,24,16,14,371.00
2017,05,24,16,15,371.00
2017,05,24,16,16,347.10
2017,05,24,16,17,293.40
2017,05,24,16,18,271.80
2017,05,24,16,19,261.00
2017,05,24,16,20,268.60
2017,05,24,16,21,285.80
2017,05,24,16,22,301.20
2017,05,24,16,23,317.00
2017,05,24,16,24,322.00
2017,05,24,16,25,443.30
2017,05,24,16,26,418.00
2017,05,24,16,27,521.70
2017,05,24,16,28,800.00
2017,05,24,16,29,769.30
2017,05,24,16,30,745.70
2017,05,24,16,31,725.70
2017,05,24,16,32,714.80
2017,05,24,16,33,710.30
2017,05,24,16,34,703.90
2017,05,24,16,35,706.80
2017,05,24,16,36,708.00
2017,05,24,16,37,453.30
2017,05,24,16,38,465.30
2017,05,24,16,39,674.40
2017,05,24,16,40,660.00
2017,05,24,16,41,651.80
2017,05,24,16,42,644.20
2017,05,24,16,43,640.20
2017,05,24,16,44,639.20
2017,05,24,16,45,636.00
2017,05,24,16,46,634.50
2017,05,24,16,47,633.00
2017,05,24,16,48,635.30
2017,05,24,16,49,639.60
2017,05,24,16,50,637.60
2017,05,24,16,51,636.00
2017,05,24,16,52,635.50
2017,05,24,16,53,632.40
2017,05,24,16,54,631.00
2017,05,24,16,55,631.30
2017,05,24,16,56,632.50
2017,05,24,16,57,630.20
2017,05,24,16,58,625.20
2017,05,24,16,59,621.30
2017,05,24,17,00,621.00
2017,05,24,17,01,624.80
2017,05,24,17,02,630.10
2017,05,24,17,03,633.00
2017,05,24,17,04,633.00
2017,05,24,17,05,633.00